This is the latest recevied weather packets stored in our database for station/object SM6LNJ-13. If no packets are shown the sender has not sent any weather packets the latest 10 day(s).
| Time | Temp. | Humidity | Pressure | Rain* | Wind** | Luminosity | Snow |
|---|---|---|---|---|---|---|---|
| 1777671586 | 10.56° C | 78% | 1420.1 hPa | 0 mm | - | - | - |
| 1777671466 | 10.56° C | 78% | 1420.1 hPa | 0 mm | - | - | - |
| 1777671346 | 10.56° C | 78% | 1420.1 hPa | 0 mm | - | - | - |
| 1777671226 | 10.56° C | 78% | 1420.1 hPa | 0 mm | - | - | - |
| 1777671105 | 10.56° C | 78% | 1420.2 hPa | 0 mm | - | - | - |
| 1777670986 | 10.56° C | 78% | 1420.2 hPa | 0 mm | - | - | - |
| 1777670866 | 10.56° C | 77% | 1420.3 hPa | 0 mm | - | - | - |
| 1777670745 | 10.56° C | 77% | 1420.4 hPa | 0 mm | - | - | - |
| 1777670625 | 10.56° C | 78% | 1420.5 hPa | 0 mm | - | - | - |
| 1777670505 | 10.56° C | 78% | 1420.5 hPa | 0 mm | - | - | - |
| 1777670386 | 10.56° C | 78% | 1420.5 hPa | 0 mm | - | - | - |
| 1777670266 | 10.56° C | 78% | 1420.6 hPa | 0 mm | - | - | - |
| 1777670145 | 10.56° C | 78% | 1420.6 hPa | 0 mm | - | - | - |
| 1777670026 | 10.56° C | 77% | 1420.6 hPa | 0 mm | - | - | - |
| 1777666905 | 11.11° C | 73% | 1421.2 hPa | 0 mm | - | - | - |
| 1777659586 | 13.89° C | 54% | 1428.1 hPa | 0 mm | - | - | - |
| 1777659106 | 15° C | 51% | 1431.4 hPa | 0 mm | - | - | - |
| 1777658903 | 15.56° C | 51% | 1432.4 hPa | 0 mm | - | - | - |
| 1777658866 | 15.56° C | 51% | 1432.4 hPa | 0 mm | - | - | - |
| 1777658506 | 15.56° C | 52% | 1432.9 hPa | 0 mm | - | - | - |
| 1777658386 | 15.56° C | 52% | 1433 hPa | 0 mm | - | - | - |
| 1777658266 | 16.11° C | 52% | 1433.4 hPa | 0 mm | - | - | - |
| 1777658026 | 16.11° C | 52% | 1433.6 hPa | 0 mm | - | - | - |
| 1777657786 | 16.11° C | 52% | 1434 hPa | 0 mm | - | - | - |
| 1777657426 | 16.67° C | 52% | 1435.1 hPa | 0 mm | - | - | - |
* Rain latest hour (hover to see other rain measurements)
** Current wind speed in m/s (hover to see current wind gust speed)